Location: Bannatyne
(13.0833°N, 59.5333°W)
Time: 15:46:17
(UTC+00:00)

Vanguard 3 - Pass Details

Date: 01 February 2020
Orbit: 508 x 3263 km, 33.3° (Epoch: 21 February)

Event Time Altitude Azimuth Distance (km) Brightness Sun altitude
Rises 15:35:24 0° 215° (SW) 4,206 11.1 58.5°
Reaches altitude 10° 15:37:54 10° 209° (SSW) 3,531 10.9 58.7°
Maximum altitude 15:47:08 49° 137° (SE) 2,538 11.3 59.2°
Drops below altitude 10° 16:02:35 10° 68° (ENE) 5,758 11.5 59.7°
Sets 16:07:56 0° 64° (ENE) 7,027 11.8 59.8°
